Change the Weather History Date:

Thursday, February 13, 2014

  Actual Average Record
Temperature  
Mean Temperature 43 °F 31 °F  
Max Temperature 54 °F 45 °F 63 °F (2015)
Min Temperature 31 °F 17 °F 2 °F (2007)
Degree Days  
Heating Degree Days 22 34  
Month to date heating degree days 697 458  
Since 1 July heating degree days 4551 4353  
Cooling Degree Days 0 0  
Month to date cooling degree days 0 0  
Year to date cooling degree days 0 0  
Moisture  
Dew Point 31 °F    
Average Humidity 69    
Maximum Humidity 96    
Minimum Humidity 41    
Precipitation  
Precipitation 0.07 in 0.01 in 0.07 in (2014)
Month to date precipitation 0.30 0.15  
Year to date precipitation 0.50 0.41  
Sea Level Pressure  
Sea Level Pressure 29.78 in    
Wind  
Wind Speed 16 mph (WNW)    
Max Wind Speed 33 mph    
Max Gust Speed 43 mph    
Visibility 8 miles    
Events Snow    
T = Trace of Precipitation, MM = Missing Value Source: NWS Daily Summary

Daily Weather History Graph

Daily Weather History Graph

Search for Another Location

Airport or City:

Trip Planner

Search our weather history database for the weather conditions in past years. The results will help you decide how hot, cold, wet, or windy it might be!

Date:

Astronomy

Feb. 13, 2014 Rise Set
Actual Time 6:55 AM MST 5:26 PM MST
Civil Twilight 6:26 AM MST 5:55 PM MST
Nautical Twilight 5:53 AM MST 6:28 PM MST
Astronomical Twilight 5:21 AM MST 7:01 PM MST
Moon 4:37 PM MST (2/13) 5:50 AM MST (2/13)
Length of Visible Light 11h 29m
Length of Day
10h 31m
Waxing Gibbous, 99% of the Moon is Illuminated
Feb 13
Waxing Gibbous
Feb 14
Full
Feb 22
Last Quarter
Mar 1
New
Mar 8
First Quarter

Hourly Weather History & Observations

Time (MST) Temp. Windchill Dew Point Humidity Pressure Visibility Wind Dir Wind Speed Gust Speed Precip Events Conditions
12:53 AM 41.0 °F 32.8 °F 30.0 °F 65% 29.80 in 10.0 mi WNW 16.1 mph - N/A   Clear
1:53 AM 39.0 °F - 30.0 °F 70% 29.82 in 10.0 mi North - - N/A   Clear
2:53 AM 37.0 °F 31.0 °F 28.9 °F 73% 29.81 in 10.0 mi SW 8.1 mph - N/A   Clear
3:53 AM 37.0 °F 31.0 °F 28.9 °F 73% 29.82 in 10.0 mi WNW 8.1 mph - N/A   Clear
4:53 AM 33.1 °F 26.1 °F 28.0 °F 82% 29.84 in 10.0 mi West 8.1 mph - N/A   Clear
5:53 AM 33.1 °F 25.5 °F 27.0 °F 78% 29.84 in 10.0 mi WNW 9.2 mph - N/A   Clear
6:53 AM 37.0 °F 28.9 °F 28.9 °F 73% 29.83 in 10.0 mi WNW 12.7 mph - N/A   Clear
7:53 AM 37.9 °F 30.5 °F 28.9 °F 70% 29.83 in 10.0 mi WNW 11.5 mph - N/A   Clear
8:53 AM 42.1 °F 37.1 °F 30.9 °F 65% 29.81 in 10.0 mi WSW 8.1 mph - N/A   Clear
9:53 AM 45.0 °F 37.4 °F 30.9 °F 58% 29.78 in 10.0 mi West 18.4 mph 25.3 mph N/A   Clear
10:53 AM 46.9 °F - 32.0 °F 56% 29.76 in 10.0 mi West 18.4 mph 25.3 mph N/A   Partly Cloudy
11:53 AM 50.0 °F - 33.1 °F 52% 29.71 in 10.0 mi West 21.9 mph 28.8 mph N/A   Partly Cloudy
12:53 PM 52.0 °F - 33.1 °F 49% 29.65 in 10.0 mi West 23.0 mph 41.4 mph N/A   Clear
1:53 PM 53.1 °F - 33.1 °F 47% 29.63 in 10.0 mi West 26.5 mph 36.8 mph N/A   Clear
2:53 PM 54.0 °F - 32.0 °F 43% 29.62 in 10.0 mi West 18.4 mph 29.9 mph N/A   Clear
3:53 PM 53.1 °F - 30.0 °F 41% 29.62 in 10.0 mi West 27.6 mph 40.3 mph N/A   Clear
4:53 PM 51.1 °F - 30.9 °F 46% 29.65 in 10.0 mi West 23.0 mph 34.5 mph N/A   Clear
5:53 PM 48.0 °F - 32.0 °F 54% 29.67 in 10.0 mi West 18.4 mph 28.8 mph N/A   Clear
6:53 PM 46.0 °F 38.5 °F 32.0 °F 58% 29.68 in 10.0 mi West 19.6 mph 27.6 mph N/A   Clear
7:16 PM 42.1 °F 33.1 °F 30.0 °F 62% 29.73 in 10.0 mi North 20.7 mph 43.7 mph N/A   Mostly Cloudy
7:53 PM 37.0 °F 25.6 °F 30.9 °F 79% 29.77 in 10.0 mi North 24.2 mph 31.1 mph N/A   Mostly Cloudy
8:53 PM 36.0 °F 27.1 °F 30.9 °F 82% 29.82 in 10.0 mi North 13.8 mph 18.4 mph N/A   Overcast
9:21 PM 34.0 °F 26.0 °F 32.0 °F 92% 29.83 in 6.0 mi North 10.4 mph 23.0 mph 0.00 in Snow Light Snow
9:27 PM 33.1 °F 24.4 °F 32.0 °F 96% 29.84 in 2.5 mi NNW 11.5 mph 21.9 mph 0.00 in Snow Light Snow
9:33 PM 33.1 °F 23.4 °F 32.0 °F 96% 29.84 in 1.2 mi NNW 13.8 mph 24.2 mph 0.01 in Snow Light Snow
9:53 PM 33.1 °F 21.9 °F 32.0 °F 96% 29.86 in 1.5 mi NNW 18.4 mph 28.8 mph 0.02 in Snow Light Snow
10:06 PM 33.1 °F 24.4 °F 32.0 °F 96% 29.84 in 2.0 mi NNW 11.5 mph - 0.01 in Snow Light Snow
10:14 PM 33.1 °F 24.9 °F 32.0 °F 96% 29.84 in 3.0 mi NNW 10.4 mph - 0.01 in Snow Light Snow
10:53 PM 33.1 °F 25.5 °F 32.0 °F 96% 29.86 in 6.0 mi NNW 9.2 mph - 0.03 in Snow Light Snow
11:03 PM 33.1 °F 25.5 °F 32.0 °F 96% 29.84 in 3.0 mi NNW 9.2 mph - 0.00 in Snow Light Snow
11:11 PM 33.1 °F 24.4 °F 32.0 °F 96% 29.84 in 2.0 mi North 11.5 mph - 0.01 in Snow Light Snow
11:16 PM 32.0 °F 24.8 °F 32.0 °F 100% 29.83 in 1.8 mi North 8.1 mph - 0.01 in Snow Light Snow
11:22 PM 32.0 °F 26.4 °F 32.0 °F 100% 29.82 in 2.0 mi NW 5.8 mph - 0.02 in Snow Light Snow
11:31 PM 32.0 °F 26.4 °F 32.0 °F 100% 29.83 in 9.0 mi West 5.8 mph - 0.02 in Snow Light Snow
11:42 PM 32.0 °F 25.6 °F 32.0 °F 100% 29.83 in 10.0 mi West 6.9 mph - 0.02 in   Overcast
11:53 PM 32.0 °F 22.5 °F 30.9 °F 96% 29.86 in 2.5 mi WNW 12.7 mph 17.3 mph 0.02 in Snow Light Snow